Regional Weather Roundup
Issued by NWS Sterling, VA

Home | Current Version | Previous Version | Graphics & Text | Print | Product List | Glossary On
Versions: 1 2 3 4 5 6 7 8 9 10 11 12 13 14 15 16 17 18 19 20 21 22 23 24 25 26 27 28 29 30 31 32 33 34 35 36 37 38 39 40 41 42 43 44 45 46 47 48 49 50
000
ASUS41 KLWX 301910
RWRLWX

REGIONAL WEATHER ROUNDUP
NATIONAL WEATHER SERVICE BALTIMORE MD/WASHINGTON DC
300 PM EDT TUE JUN 30 2015

Note: "FAIR" indicates few or no clouds below 12,000 feet
with no significant weather and/or obstructions to visibility.
 TC=TEMPERATURE CELSIUS

 * =Non NWS site. Station does not report precipitation (e.g. rain,
    snow, etc.), thunder, or fog.

DCZ001-MDZ009-015-VAZ040>042-051-053>054-302000-
WASHINGTON METRO

CITY           SKY/WX    TMP DP  RH WIND       PRES   REMARKS
WASHINGTON NAT MOSUNNY   88  70  55 S12       29.84F HX  93
DULLES         PTSUNNY   84  67  56 SW13G18   29.84F
ANDREWS AFB    MOSUNNY   86  73  66 SW17      29.84F HX  93
FT BELVOIR     MOSUNNY   86  68  54 VRB7      29.84F HX  90
QUANTICO       PTSUNNY   85  66  53 SW8       29.85F
COLLEGE PARK*  MOSUNNY   86  66  51 S9        29.83F
LEESBURG*      SUNNY     88  70  55 SW13G20   29.85F HX  92
MANASSAS*      SUNNY     84  70  61 SW8         N/A
GAITHERSBURG*  MOSUNNY   84  66  54 SW7G17    29.88F

$$

MDZ006>007-011-014-302000-
BALTIMORE METRO

CITY           SKY/WX    TMP DP  RH WIND       PRES   REMARKS
BWI AIRPORT    PTSUNNY   85  68  56 S8        29.83F
MD SCIENCE CTR   N/A     87  67  51 MISG      29.85R HX  90
MARTIN STATE   PTSUNNY   84  75  74 S18       29.86F HX  92
ANNAPOLIS      MOSUNNY   81  70  69 S15       29.84F
FORT MEADE*    MOSUNNY   84  68  58 SW8       29.85F

$$

MDZ012-015-019>023-302000-
MARYLAND EASTERN SHORE

CITY           SKY/WX    TMP DP  RH WIND       PRES   REMARKS
OCEAN CITY     SUNNY     79  71  76 S9G20     29.91F
SALISBURY      MOSUNNY   85  71  63 S13G20    29.88F HX  90
BAY BRIDGE AP*   N/A     82  64  54 SE13G20   29.84F
CAMBRIDGE*     MOSUNNY   86  64  48 S18G25    29.86F
EASTON*        MOSUNNY   86  73  66 S15       29.89F HX  93

$$

MDZ017>025-302000-
SOUTHERN MARYLAND

CITY           SKY/WX    TMP DP  RH WIND       PRES   REMARKS
PATUXENT RIVER MOSUNNY   84  72  67 SE17G23   29.85F
ST INIGOES     SUNNY     86  72  62 SE13G18   29.85F HX  92
LEONARDTOWN*   SUNNY     86  64  48 S6        29.87F

$$

MDZ003>005-302000-
NORTH CENTRAL MARYLAND

CITY           SKY/WX    TMP DP  RH WIND       PRES   REMARKS
FREDERICK*     SUNNY     86  72  62 SW8       29.85F HX  92
HAGERSTOWN APT MOSUNNY   84  63  49 SW6       29.83F
WESTMINSTER*   PTSUNNY   84  70  61 S7        29.85F

$$

MDZ501>502-302000-
WESTERN MARYLAND

CITY           SKY/WX    TMP DP  RH WIND       PRES   REMARKS
OAKLAND*       MOSUNNY   72  72 100 S12       29.95S
CUMBERLAND*    MOSUNNY   82  63  51 S8        29.87F

$$

VAZ025>031-302000-
SHENANDOAH VALLEY

CITY           SKY/WX    TMP DP  RH WIND       PRES   REMARKS
WINCHESTER*    MOSUNNY   86  64  48 W5        29.84F
FRONT ROYAL*   FAIR      82  66  57 S5        29.84F
LURAY*         FAIR      88  66  48 SW14      29.86S HX  90
NEW MARKET*    FAIR      83  67  58 SW8       29.83F
STAUNTON*      MOSUNNY   85  63  47 S9        29.91F
WAYNESBORO*    FAIR      81  64  55 SW6       29.91F

$$

WVZ021-048>050-054>055-302000-
EASTERN WEST VIRGINIA PANHANDLE

CITY           SKY/WX    TMP DP  RH WIND       PRES   REMARKS
MARTINSBURG    MOSUNNY   84  63  49 S6        29.84F
PETERSBURG*    PTSUNNY   84  57  39 W6        29.86F

$$

VAZ036>039-050-302000-
CENTRAL FOOTHILLS

CITY           SKY/WX    TMP DP  RH WIND       PRES   REMARKS
CHARLOTTESVILL MOSUNNY   82  67  60 SW9G21    29.88F
CULPEPER*      MOSUNNY   83  68  61 S9        29.86F
ORANGE*        PTSUNNY   86  66  51 S9G17     29.88F
GORDONSVILLE*  FAIR      82  68  61 SW12G17   29.86F
WARRENTON*     FAIR      85  71  62 SW8       29.85F HX  90

$$

VAZ055>057-302000-
NORTH AND CENTRAL PIEDMONT

CITY           SKY/WX    TMP DP  RH WIND       PRES   REMARKS
FREDERICKSBRG* PTSUNNY   88  69  53 SW8       29.85F HX  93
STAFFORD*      PTSUNNY   85  67  55 S6        29.89F

$$

NCZ024-NYZ072-PAZ021-071-VAZ022-071-302000-
OTHER REGIONAL OBSERVATIONS

CITY           SKY/WX    TMP DP  RH WIND       PRES   REMARKS
NEW YORK CITY  SUNNY     80  58  46 VRB5G21   29.93F
PHILADELPHIA   PTSUNNY   85  65  51 S17G25    29.86F
PITTSBURGH     PTSUNNY   74  63  68 SW12      29.82F
ROANOKE        MOSUNNY   84  63  49 W8        29.93F
RICHMOND       PTSUNNY   87  67  51 SW15      29.87F HX  90
RALEIGH        MOSUNNY   88  67  49 SW15      29.90F HX  91

$$

ANZ530>537-302000-
MARINE OBSERVATIONS

STATION/POSITION TIME  TEMP    WIND        PRES
                       AIR SEA DIR/SP/G
                 (UTC) (F)     (DEG/KT/KT) (MB)
THOMAS PT LIGHT  NOT AVBL
BALT KEY BRIDGE  1800   79     160/ 13/ 16 1010.5F
COVE POINT       1800   78     180/ 21/ 24 1012.3F
LEWISETTA        1800   85 81  210/  8/ 10 1011.2F
SOLOMONS ISLAND  1800      81                N/A
PINEY POINT      1800          200/ 12/ 16   N/A

$$



USA.gov is the U.S. government's official web portal to all federal, state and local government web resources and services.